• Em Portugal
  • Lista de países
  • Para 7 dias
  • Temperatura da água
  • Mapas de satélite
  • Mapa do tempo
  • Widgets de tempo
  • user-avatar
    Iniciar Sessão

    Previsão horária em Tóquio

    Hoje, 25 Setembro, Terça-feira

    Tempo Temperatura Precipitação Vento Pressão Humidade
    00:00 +27°C° 0.4 mm 1 m/s 759 mmHg 79%
    01:00 +27°C° 0.4 mm 1 m/s 759 mmHg 79%
    02:00 +26°C° 0.4 mm 1 m/s 758 mmHg 79%
    03:00 +26°C° 0 mm 1 m/s 758 mmHg 81%
    04:00 +26°C° 0.8 mm 1 m/s 758 mmHg 80%
    05:00 +26°C° 0.8 mm 1 m/s 758 mmHg 79%
    06:00 +26°C° 0.8 mm 1 m/s 758 mmHg 78%
    07:00 +27°C° 0.7 mm 1 m/s 758 mmHg 73%
    08:00 +27°C° 0.7 mm 2 m/s 758 mmHg 69%
    09:00 +27°C° 0 mm 2 m/s 758 mmHg 68%
    10:00 +27°C° 1.5 mm 3 m/s 758 mmHg 68%
    11:00 +27°C° 1.5 mm 3 m/s 758 mmHg 69%
    12:00 +27°C° 1.5 mm 4 m/s 758 mmHg 69%
    13:00 +26°C° 3 mm 4 m/s 758 mmHg 72%
    14:00 +25°C° 3 mm 4 m/s 758 mmHg 75%
    15:00 +23°C° 0 mm 5 m/s 758 mmHg 78%
    16:00 +23°C° 1.7 mm 5 m/s 758 mmHg 78%
    17:00 +23°C° 1.7 mm 5 m/s 758 mmHg 78%
    18:00 +23°C° 1.7 mm 5 m/s 758 mmHg 79%
    19:00 +23°C° 0.2 mm 4 m/s 759 mmHg 78%
    20:00 +23°C° 0.2 mm 4 m/s 759 mmHg 78%
    21:00 +22°C° 0 mm 3 m/s 759 mmHg 80%
    22:00 +22°C° 0.5 mm 4 m/s 759 mmHg 80%
    23:00 +22°C° 0.5 mm 4 m/s 759 mmHg 80%

    Amanhã, 26 Setembro, Quarta-feira

    Tempo Temperatura Precipitação Vento Pressão Humidade
    00:00 +22°C° 0.5 mm 4 m/s 759 mmHg 79%
    01:00 +22°C° 0.2 mm 4 m/s 759 mmHg 79%
    02:00 +22°C° 0.2 mm 4 m/s 759 mmHg 78%
    03:00 +22°C° 0.2 mm 4 m/s 759 mmHg 78%
    04:00 +22°C° 0.2 mm 4 m/s 759 mmHg 77%
    05:00 +22°C° 0.2 mm 4 m/s 759 mmHg 76%
    06:00 +22°C° 0.2 mm 5 m/s 759 mmHg 76%
    07:00 +22°C° 0.1 mm 5 m/s 759 mmHg 74%
    08:00 +22°C° 0.1 mm 5 m/s 760 mmHg 72%
    09:00 +22°C° 0.1 mm 5 m/s 760 mmHg 70%
    10:00 +22°C° 0.1 mm 5 m/s 760 mmHg 68%
    11:00 +23°C° 0.1 mm 5 m/s 760 mmHg 66%
    12:00 +23°C° 0.1 mm 5 m/s 760 mmHg 64%
    13:00 +23°C° 0.2 mm 5 m/s 759 mmHg 64%
    14:00 +23°C° 0.2 mm 5 m/s 759 mmHg 65%
    15:00 +23°C° 0.2 mm 5 m/s 759 mmHg 65%
    16:00 +23°C° 0.4 mm 5 m/s 759 mmHg 68%
    17:00 +22°C° 0.4 mm 5 m/s 759 mmHg 70%
    18:00 +22°C° 0.4 mm 5 m/s 759 mmHg 72%
    19:00 +22°C° 1.6 mm 6 m/s 759 mmHg 74%
    20:00 +21°C° 1.6 mm 6 m/s 759 mmHg 76%
    21:00 +21°C° 1.6 mm 6 m/s 759 mmHg 78%
    22:00 +21°C° 1.9 mm 6 m/s 759 mmHg 77%
    23:00 +21°C° 1.9 mm 7 m/s 759 mmHg 77%

    Depois de amanhã, 27 Setembro, Quinta-feira

    Tempo Temperatura Precipitação Vento Pressão Humidade
    00:00 +20°C° 1.9 mm 7 m/s 758 mmHg 76%
    01:00 +20°C° 2.3 mm 7 m/s 758 mmHg 76%
    02:00 +20°C° 2.3 mm 7 m/s 758 mmHg 77%
    03:00 +19°C° 2.3 mm 6 m/s 757 mmHg 77%
    04:00 +19°C° 1.3 mm 6 m/s 757 mmHg 77%
    05:00 +19°C° 1.3 mm 6 m/s 758 mmHg 77%
    06:00 +19°C° 1.3 mm 6 m/s 758 mmHg 77%
    07:00 +19°C° 0.4 mm 6 m/s 758 mmHg 76%
    08:00 +20°C° 0.4 mm 6 m/s 757 mmHg 74%
    09:00 +20°C° 0.4 mm 7 m/s 757 mmHg 72%
    10:00 +20°C° 0.2 mm 6 m/s 757 mmHg 72%
    11:00 +20°C° 0.2 mm 6 m/s 757 mmHg 71%
    12:00 +20°C° 0.2 mm 5 m/s 757 mmHg 71%
    13:00 +20°C° 0.1 mm 5 m/s 756 mmHg 70%
    14:00 +21°C° 0.1 mm 5 m/s 756 mmHg 69%
    15:00 +21°C° 0.1 mm 5 m/s 756 mmHg 68%
    16:00 +21°C° 0 mm 4 m/s 756 mmHg 68%
    17:00 +21°C° 0 mm 4 m/s 756 mmHg 69%
    18:00 +21°C° 0 mm 4 m/s 757 mmHg 69%
    19:00 +21°C° 0 mm 4 m/s 757 mmHg 70%
    20:00 +21°C° 0 mm 3 m/s 758 mmHg 71%
    21:00 +20°C° 0 mm 3 m/s 758 mmHg 72%
    22:00 +20°C° 0 mm 3 m/s 758 mmHg 73%
    23:00 +20°C° 0 mm 3 m/s 758 mmHg 73%

    28 Setembro, Sexta-feira

    Tempo Temperatura Precipitação Vento Pressão Humidade
    00:00 +20°C° 0 mm 2 m/s 758 mmHg 74%
    01:00 +20°C° 0 mm 2 m/s 758 mmHg 74%
    02:00 +20°C° 0 mm 2 m/s 758 mmHg 74%
    03:00 +19°C° 0 mm 2 m/s 758 mmHg 74%
    04:00 +19°C° 0 mm 2 m/s 759 mmHg 74%
    05:00 +19°C° 0 mm 2 m/s 759 mmHg 75%
    06:00 +19°C° 0 mm 2 m/s 759 mmHg 75%
    07:00 +20°C° 0 mm 2 m/s 760 mmHg 70%
    08:00 +23°C° 0 mm 1 m/s 760 mmHg 65%
    09:00 +24°C° 0 mm 1 m/s 760 mmHg 60%
    10:00 +25°C° 0 mm 1 m/s 760 mmHg 56%
    11:00 +26°C° 0 mm 1 m/s 760 mmHg 52%
    12:00 +27°C° 0 mm 1 m/s 760 mmHg 49%
    13:00 +27°C° 0 mm 1 m/s 760 mmHg 47%
    14:00 +28°C° 0 mm 2 m/s 760 mmHg 46%
    15:00 +28°C° 0 mm 2 m/s 759 mmHg 45%
    16:00 +27°C° 0 mm 3 m/s 760 mmHg 49%
    17:00 +27°C° 0 mm 3 m/s 760 mmHg 52%
    18:00 +26°C° 0 mm 4 m/s 761 mmHg 56%
    19:00 +25°C° 0 mm 3 m/s 761 mmHg 59%
    20:00 +25°C° 0 mm 3 m/s 762 mmHg 63%
    21:00 +25°C° 0 mm 3 m/s 762 mmHg 66%
    22:00 +24°C° 0.1 mm 3 m/s 762 mmHg 67%
    23:00 +24°C° 0.1 mm 3 m/s 762 mmHg 68%

    29 Setembro, Sábado

    Tempo Temperatura Precipitação Vento Pressão Humidade
    00:00 +24°C° 0.1 mm 3 m/s 762 mmHg 69%
    01:00 +24°C° 0.1 mm 2 m/s 762 mmHg 70%
    02:00 +24°C° 0.1 mm 2 m/s 762 mmHg 70%
    03:00 +24°C° 0.1 mm 2 m/s 762 mmHg 71%
    04:00 +24°C° 0.1 mm 2 m/s 762 mmHg 71%
    05:00 +24°C° 0.1 mm 2 m/s 762 mmHg 72%
    06:00 +23°C° 0.1 mm 2 m/s 762 mmHg 72%
    07:00 +24°C° 0.1 mm 2 m/s 762 mmHg 70%
    08:00 +25°C° 0.1 mm 2 m/s 762 mmHg 67%
    09:00 +25°C° 0.1 mm 3 m/s 762 mmHg 65%
    10:00 +25°C° 0.4 mm 3 m/s 762 mmHg 66%
    11:00 +25°C° 0.4 mm 3 m/s 762 mmHg 67%
    12:00 +25°C° 0.4 mm 3 m/s 761 mmHg 68%
    13:00 +25°C° 0.3 mm 3 m/s 761 mmHg 68%
    14:00 +25°C° 0.3 mm 3 m/s 761 mmHg 69%
    15:00 +25°C° 0.3 mm 3 m/s 760 mmHg 70%
    16:00 +24°C° 0.5 mm 3 m/s 761 mmHg 71%
    17:00 +24°C° 0.5 mm 2 m/s 761 mmHg 72%
    18:00 +24°C° 0.5 mm 2 m/s 761 mmHg 74%
    19:00 +23°C° 0.7 mm 2 m/s 761 mmHg 74%
    20:00 +23°C° 0.7 mm 2 m/s 761 mmHg 75%
    21:00 +23°C° 0.7 mm 2 m/s 761 mmHg 76%
    22:00 +23°C° 1.6 mm 2 m/s 761 mmHg 78%
    23:00 +23°C° 1.6 mm 2 m/s 760 mmHg 79%

    30 Setembro, Domingo

    Tempo Temperatura Precipitação Vento Pressão Humidade
    00:00 +23°C° 1.6 mm 2 m/s 760 mmHg 80%
    01:00 +23°C° 1.6 mm 2 m/s 759 mmHg 81%
    02:00 +23°C° 1.6 mm 2 m/s 759 mmHg 81%
    03:00 +23°C° 1.6 mm 1 m/s 759 mmHg 82%
    04:00 +23°C° 0.7 mm 1 m/s 759 mmHg 82%
    05:00 +23°C° 0.7 mm 1 m/s 759 mmHg 82%
    06:00 +23°C° 0.7 mm 1 m/s 759 mmHg 82%
    07:00 +24°C° 0.1 mm 1 m/s 759 mmHg 80%
    08:00 +24°C° 0.1 mm 2 m/s 758 mmHg 78%
    09:00 +25°C° 0.1 mm 2 m/s 758 mmHg 76%
    10:00 +25°C° 0.1 mm 2 m/s 758 mmHg 74%
    11:00 +26°C° 0.1 mm 2 m/s 757 mmHg 72%
    12:00 +27°C° 0.1 mm 3 m/s 757 mmHg 70%
    13:00 +27°C° 0.1 mm 3 m/s 756 mmHg 72%
    14:00 +26°C° 0.1 mm 2 m/s 755 mmHg 73%
    15:00 +26°C° 0.1 mm 2 m/s 755 mmHg 75%
    16:00 +26°C° 0.1 mm 2 m/s 755 mmHg 77%
    17:00 +26°C° 0.1 mm 2 m/s 754 mmHg 79%
    18:00 +26°C° 0.1 mm 2 m/s 754 mmHg 81%
    19:00 +26°C° 0.1 mm 1 m/s 754 mmHg 82%
    20:00 +26°C° 0.1 mm 1 m/s 754 mmHg 83%
    21:00 +25°C° 0.1 mm 1 m/s 754 mmHg 84%
    22:00 +25°C° 0.1 mm 1 m/s 753 mmHg 85%
    23:00 +25°C° 0.1 mm 2 m/s 753 mmHg 86%
    Mostrar mais